This is the latest recevied weather packets stored in our database for station/object WC4PEM-15. If no packets are shown the sender has not sent any weather packets the latest 1 day(s).
| Time | Temp. | Humidity | Pressure | Rain* | Wind** | Luminosity | Snow |
|---|---|---|---|---|---|---|---|
| 1777959603 | 18.89° C | 86% | 1015.3 hPa | 0 mm | 2.24 m/s, 68° | - | - |
| 1777959303 | 18.89° C | 86% | 1015.2 hPa | 0 mm | 1.79 m/s, 63° | - | - |
| 1777959003 | 18.89° C | 86% | 1015.3 hPa | 0 mm | 1.79 m/s, 79° | - | - |
| 1777958950 | 18.89° C | 85% | 1015.5 hPa | 0 mm | 1.79 m/s, 81° | - | - |
| 1777958703 | 18.89° C | 85% | 1015.5 hPa | 0 mm | 1.79 m/s, 81° | - | - |
| 1777958532 | 18.89° C | 85% | 1015.4 hPa | 0 mm | 1.79 m/s, 80° | - | - |
| 1777958403 | 18.89° C | 85% | 1015.7 hPa | 0 mm | 2.24 m/s, 68° | - | - |
| 1777958165 | 18.89° C | 85% | 1015.4 hPa | 0 mm | 1.79 m/s, 80° | - | - |
| 1777958103 | 18.89° C | 85% | 1015.4 hPa | 0 mm | 1.79 m/s, 80° | - | - |
| 1777957803 | 18.89° C | 85% | 1015.7 hPa | 0 mm | 1.79 m/s, 65° | - | - |
| 1777957721 | 18.89° C | 85% | 1016 hPa | 0 mm | 1.79 m/s, 70° | - | - |
| 1777957503 | 18.89° C | 85% | 1016 hPa | 0 mm | 1.79 m/s, 70° | - | - |
| 1777957203 | 18.89° C | 84% | 1015.9 hPa | 0 mm | 1.79 m/s, 75° | - | - |
| 1777956993 | 18.89° C | 84% | 1015.5 hPa | 0 mm | 2.24 m/s, 65° | - | - |
| 1777956903 | 18.89° C | 85% | 1015.6 hPa | 0 mm | 2.24 m/s, 79° | - | - |
| 1777956885 | 18.89° C | 84% | 1015.5 hPa | 0 mm | 2.24 m/s, 65° | - | - |
| 1777956885 | 18.89° C | 84% | 1015.7 hPa | 0 mm | 2.24 m/s, 73° | - | - |
| 1777956603 | 18.89° C | 84% | 1015.5 hPa | 0 mm | 2.24 m/s, 65° | - | - |
| 1777956355 | 18.89° C | 84% | 1015.7 hPa | 0 mm | 2.24 m/s, 79° | - | - |
| 1777956303 | 18.89° C | 84% | 1015.7 hPa | 0 mm | 2.24 m/s, 73° | - | - |
| 1777956064 | 18.89° C | 84% | 1015.7 hPa | 0 mm | 2.24 m/s, 79° | - | - |
| 1777956003 | 18.89° C | 84% | 1015.7 hPa | 0 mm | 2.24 m/s, 79° | - | - |
| 1777955913 | 18.89° C | 84% | 1015.6 hPa | 0 mm | 2.24 m/s, 66° | - | - |
| 1777955703 | 18.89° C | 84% | 1015.6 hPa | 0 mm | 2.24 m/s, 66° | - | - |
| 1777955698 | 18.89° C | 84% | 1015.8 hPa | 0 mm | 2.24 m/s, 71° | - | - |
* Rain latest hour (hover to see other rain measurements)
** Current wind speed in m/s (hover to see current wind gust speed)